When you browse on this site, cookies collect data to enhance your experience and personalize the content and advertising you see.
Visit our Privacy Policy to learn more. By continuing to use the site, you agree to this use of cookies and data.
  • In Hungary
  • List of Countries
  • For 7 days
  • Water Temperature
  • Satellite Maps
  • Weather Map
  • News
  • Weather Widgets
  • user-avatar
    Login

    Hourly Weather Keshod

    Today, 20 March, Wednesday

    Time Temperature Precipitation Wind Pressure Humidity
    00:00 +27°C° 0 mm 3 mps 753 mmHg 51%
    01:00 +26°C° 0 mm 3 mps 753 mmHg 55%
    02:00 +25°C° 0 mm 3 mps 752 mmHg 58%
    03:00 +25°C° 0 mm 3 mps 752 mmHg 63%
    04:00 +24°C° 0 mm 2 mps 752 mmHg 67%
    05:00 +24°C° 0 mm 3 mps 752 mmHg 74%
    06:00 +24°C° 0 mm 3 mps 753 mmHg 72%
    07:00 +25°C° 0 mm 3 mps 753 mmHg 71%
    08:00 +26°C° 0 mm 3 mps 754 mmHg 69%
    09:00 +28°C° 0 mm 3 mps 754 mmHg 56%
    10:00 +32°C° 0 mm 4 mps 754 mmHg 43%
    11:00 +34°C° 0 mm 4 mps 755 mmHg 33%
    12:00 +35°C° 0 mm 4 mps 754 mmHg 29%
    13:00 +36°C° 0 mm 5 mps 754 mmHg 26%
    14:00 +37°C° 0 mm 5 mps 754 mmHg 22%
    15:00 +36°C° 0 mm 6 mps 753 mmHg 25%
    16:00 +34°C° 0 mm 6 mps 753 mmHg 27%
    17:00 +33°C° 0 mm 6 mps 753 mmHg 31%
    18:00 +30°C° 0 mm 5 mps 753 mmHg 40%
    19:00 +28°C° 0 mm 5 mps 753 mmHg 49%
    20:00 +26°C° 0 mm 5 mps 754 mmHg 58%
    21:00 +26°C° 0 mm 4 mps 754 mmHg 61%
    22:00 +25°C° 0 mm 4 mps 754 mmHg 64%
    23:00 +25°C° 0 mm 3 mps 754 mmHg 67%

    Tomorrow, 21 March, Thursday

    Time Temperature Precipitation Wind Pressure Humidity
    00:00 +24°C° 0 mm 3 mps 754 mmHg 70%
    01:00 +24°C° 0 mm 3 mps 754 mmHg 73%
    02:00 +22°C° 0 mm 3 mps 754 mmHg 75%
    03:00 +22°C° 0 mm 3 mps 754 mmHg 77%
    04:00 +21°C° 0 mm 2 mps 754 mmHg 80%
    05:00 +21°C° 0 mm 2 mps 754 mmHg 82%
    06:00 +23°C° 0 mm 2 mps 754 mmHg 77%
    07:00 +22°C° 0 mm 3 mps 755 mmHg 72%
    08:00 +24°C° 0 mm 3 mps 756 mmHg 68%
    09:00 +27°C° 0 mm 3 mps 756 mmHg 54%
    10:00 +29°C° 0 mm 3 mps 756 mmHg 40%
    11:00 +32°C° 0 mm 2 mps 756 mmHg 26%
    12:00 +34°C° 0 mm 3 mps 756 mmHg 23%
    13:00 +35°C° 0 mm 3 mps 755 mmHg 19%
    14:00 +37°C° 0 mm 4 mps 755 mmHg 16%
    15:00 +36°C° 0 mm 5 mps 754 mmHg 20%
    16:00 +35°C° 0 mm 5 mps 754 mmHg 23%
    17:00 +34°C° 0 mm 6 mps 754 mmHg 27%
    18:00 +32°C° 0 mm 6 mps 754 mmHg 35%
    19:00 +29°C° 0 mm 5 mps 754 mmHg 42%
    20:00 +27°C° 0 mm 5 mps 755 mmHg 50%
    21:00 +27°C° 0 mm 4 mps 755 mmHg 53%
    22:00 +26°C° 0 mm 4 mps 755 mmHg 55%
    23:00 +26°C° 0 mm 3 mps 755 mmHg 57%

    Day after tomorrow, 22 March, Friday

    Time Temperature Precipitation Wind Pressure Humidity
    00:00 +25°C° 0 mm 3 mps 755 mmHg 59%
    01:00 +24°C° 0 mm 3 mps 755 mmHg 62%
    02:00 +24°C° 0 mm 3 mps 755 mmHg 64%
    03:00 +22°C° 0 mm 3 mps 755 mmHg 66%
    04:00 +22°C° 0 mm 3 mps 755 mmHg 67%
    05:00 +21°C° 0 mm 3 mps 755 mmHg 69%
    06:00 +22°C° 0 mm 3 mps 755 mmHg 66%
    07:00 +23°C° 0 mm 4 mps 756 mmHg 63%
    08:00 +25°C° 0 mm 4 mps 757 mmHg 60%
    09:00 +28°C° 0 mm 4 mps 757 mmHg 48%
    10:00 +32°C° 0 mm 4 mps 757 mmHg 36%
    11:00 +35°C° 0 mm 4 mps 757 mmHg 24%
    12:00 +36°C° 0 mm 3 mps 757 mmHg 20%
    13:00 +37°C° 0 mm 3 mps 756 mmHg 16%
    14:00 +38°C° 0 mm 3 mps 755 mmHg 13%
    15:00 +38°C° 0 mm 3 mps 755 mmHg 15%
    16:00 +37°C° 0 mm 4 mps 754 mmHg 17%
    17:00 +37°C° 0 mm 5 mps 754 mmHg 18%
    18:00 +35°C° 0 mm 5 mps 754 mmHg 24%
    19:00 +33°C° 0 mm 5 mps 754 mmHg 29%
    20:00 +30°C° 0 mm 5 mps 755 mmHg 35%
    21:00 +29°C° 0 mm 4 mps 755 mmHg 37%
    22:00 +29°C° 0 mm 4 mps 755 mmHg 39%
    23:00 +28°C° 0 mm 3 mps 755 mmHg 41%

    23 March, Saturday

    Time Temperature Precipitation Wind Pressure Humidity
    00:00 +27°C° 0 mm 3 mps 755 mmHg 43%
    01:00 +27°C° 0 mm 3 mps 755 mmHg 45%
    02:00 +26°C° 0 mm 3 mps 754 mmHg 47%
    03:00 +26°C° 0 mm 3 mps 754 mmHg 49%
    04:00 +25°C° 0 mm 3 mps 754 mmHg 50%
    05:00 +25°C° 0 mm 3 mps 754 mmHg 51%
    06:00 +26°C° 0 mm 3 mps 755 mmHg 48%
    07:00 +27°C° 0 mm 4 mps 756 mmHg 45%
    08:00 +28°C° 0 mm 4 mps 756 mmHg 42%
    09:00 +32°C° 0 mm 4 mps 756 mmHg 33%
    10:00 +35°C° 0 mm 4 mps 756 mmHg 24%
    11:00 +38°C° 0 mm 4 mps 757 mmHg 15%
    12:00 +40°C° 0 mm 4 mps 756 mmHg 13%
    13:00 +40°C° 0 mm 3 mps 755 mmHg 11%
    14:00 +42°C° 0 mm 3 mps 754 mmHg 10%
    15:00 +41°C° 0 mm 4 mps 754 mmHg 11%
    16:00 +41°C° 0 mm 5 mps 753 mmHg 12%
    17:00 +41°C° 0 mm 5 mps 753 mmHg 13%
    18:00 +39°C° 0 mm 5 mps 753 mmHg 14%
    19:00 +36°C° 0 mm 5 mps 754 mmHg 16%
    20:00 +35°C° 0 mm 5 mps 754 mmHg 17%
    21:00 +34°C° 0 mm 5 mps 754 mmHg 19%
    22:00 +32°C° 0 mm 4 mps 754 mmHg 21%
    23:00 +30°C° 0 mm 3 mps 755 mmHg 23%

    24 March, Sunday

    Time Temperature Precipitation Wind Pressure Humidity
    00:00 +30°C° 0 mm 3 mps 754 mmHg 25%
    01:00 +29°C° 0 mm 3 mps 754 mmHg 27%
    02:00 +28°C° 0 mm 3 mps 753 mmHg 29%
    03:00 +28°C° 0 mm 3 mps 753 mmHg 31%
    04:00 +28°C° 0 mm 3 mps 753 mmHg 33%
    05:00 +27°C° 0 mm 3 mps 753 mmHg 35%
    06:00 +28°C° 0 mm 3 mps 753 mmHg 33%
    07:00 +29°C° 0 mm 4 mps 754 mmHg 31%
    08:00 +30°C° 0 mm 4 mps 755 mmHg 29%
    09:00 +34°C° 0 mm 4 mps 755 mmHg 24%
    10:00 +36°C° 0 mm 4 mps 755 mmHg 20%
    11:00 +40°C° 0 mm 4 mps 755 mmHg 15%
    12:00 +41°C° 0 mm 4 mps 754 mmHg 14%
    13:00 +42°C° 0 mm 3 mps 754 mmHg 12%
    14:00 +43°C° 0 mm 3 mps 753 mmHg 11%
    15:00 +42°C° 0 mm 4 mps 752 mmHg 12%
    16:00 +42°C° 0 mm 5 mps 752 mmHg 13%
    17:00 +42°C° 0 mm 5 mps 752 mmHg 14%
    18:00 +40°C° 0 mm 5 mps 752 mmHg 16%
    19:00 +39°C° 0 mm 5 mps 753 mmHg 18%
    20:00 +36°C° 0 mm 5 mps 753 mmHg 20%
    21:00 +35°C° 0 mm 4 mps 753 mmHg 23%
    22:00 +34°C° 0 mm 4 mps 753 mmHg 26%
    23:00 +33°C° 0 mm 4 mps 753 mmHg 29%

    25 March, Monday

    Time Temperature Precipitation Wind Pressure Humidity
    00:00 +31°C° 0 mm 3 mps 753 mmHg 33%
    01:00 +31°C° 0 mm 3 mps 752 mmHg 36%
    02:00 +30°C° 0 mm 3 mps 752 mmHg 39%
    03:00 +30°C° 0 mm 3 mps 752 mmHg 38%
    04:00 +29°C° 0 mm 3 mps 752 mmHg 38%
    05:00 +29°C° 0 mm 3 mps 752 mmHg 37%
    06:00 +30°C° 0 mm 4 mps 753 mmHg 34%
    07:00 +32°C° 0 mm 4 mps 754 mmHg 31%
    08:00 +33°C° 0 mm 5 mps 754 mmHg 27%
    09:00 +36°C° 0 mm 4 mps 754 mmHg 23%
    10:00 +38°C° 0 mm 4 mps 755 mmHg 19%
    11:00 +42°C° 0 mm 4 mps 755 mmHg 15%
    12:00 +43°C° 0 mm 4 mps 754 mmHg 14%
    13:00 +44°C° 0 mm 4 mps 754 mmHg 12%
    14:00 +45°C° 0 mm 4 mps 753 mmHg 11%
    15:00 +44°C° 0 mm 4 mps 753 mmHg 11%
    16:00 +44°C° 0 mm 4 mps 752 mmHg 12%
    17:00 +44°C° 0 mm 4 mps 752 mmHg 12%
    18:00 +42°C° 0 mm 4 mps 753 mmHg 14%
    19:00 +40°C° 0 mm 4 mps 753 mmHg 16%
    20:00 +37°C° 0 mm 3 mps 754 mmHg 18%
    21:00 +36°C° 0 mm 3 mps 754 mmHg 19%
    22:00 +35°C° 0 mm 3 mps 754 mmHg 20%
    23:00 +35°C° 0 mm 3 mps 754 mmHg 21%
    Show more